When you browse on this site, cookies collect data to enhance your experience and personalize the content and advertising you see.
Visit our Privacy Policy to learn more. By continuing to use the site, you agree to this use of cookies and data.
  • In Österreich
  • Länderverzeichnis
  • Für 7 Tage
  • Wassertemperatur
  • Wetterkarte
  • News
  • Widgets
  • user-avatar
    Anmelden

    Stündliche Wetter Vidoshin

    Heute, 24 September, Dienstag

    Zeit Temperatur Niederschläge Wind Luftdruck Luftfeuchtigkeit
    00:00 +4°C° 0 mm 1 m/S 754 mmHg 72%
    01:00 +4°C° 0 mm 1 m/S 754 mmHg 74%
    02:00 +3°C° 0 mm 1 m/S 754 mmHg 77%
    03:00 +3°C° 0 mm 1 m/S 754 mmHg 78%
    04:00 +3°C° 0 mm 1 m/S 754 mmHg 79%
    05:00 +2°C° 0 mm 1 m/S 753 mmHg 80%
    06:00 +4°C° 0 mm 1 m/S 754 mmHg 75%
    07:00 +5°C° 0 mm 1 m/S 754 mmHg 70%
    08:00 +6°C° 0 mm 1 m/S 754 mmHg 65%
    09:00 +8°C° 0 mm 1 m/S 754 mmHg 58%
    10:00 +10°C° 0 mm 1 m/S 754 mmHg 51%
    11:00 +10°C° 0 mm 2 m/S 753 mmHg 45%
    12:00 +12°C° 0 mm 2 m/S 753 mmHg 42%
    13:00 +13°C° 0 mm 2 m/S 753 mmHg 40%
    14:00 +13°C° 0 mm 2 m/S 752 mmHg 37%
    15:00 +13°C° 0 mm 2 m/S 752 mmHg 41%
    16:00 +12°C° 0 mm 2 m/S 752 mmHg 46%
    17:00 +10°C° 0 mm 2 m/S 751 mmHg 50%
    18:00 +9°C° 0 mm 2 m/S 751 mmHg 54%
    19:00 +7°C° 0 mm 2 m/S 752 mmHg 58%
    20:00 +5°C° 0 mm 2 m/S 752 mmHg 62%
    21:00 +5°C° 0 mm 2 m/S 752 mmHg 64%
    22:00 +4°C° 0 mm 2 m/S 752 mmHg 66%
    23:00 +4°C° 0 mm 2 m/S 751 mmHg 68%

    Morgen, 25 September, Mittwoch

    Zeit Temperatur Niederschläge Wind Luftdruck Luftfeuchtigkeit
    00:00 +3°C° 0 mm 2 m/S 751 mmHg 69%
    01:00 +3°C° 0 mm 2 m/S 751 mmHg 69%
    02:00 +3°C° 0 mm 2 m/S 751 mmHg 70%
    03:00 +2°C° 0 mm 2 m/S 751 mmHg 71%
    04:00 +2°C° 0 mm 2 m/S 751 mmHg 72%
    05:00 +2°C° 0 mm 2 m/S 751 mmHg 73%
    06:00 +2°C° 0 mm 3 m/S 751 mmHg 69%
    07:00 +3°C° 0 mm 3 m/S 751 mmHg 65%
    08:00 +4°C° 0 mm 3 m/S 751 mmHg 61%
    09:00 +7°C° 0 mm 3 m/S 750 mmHg 57%
    10:00 +9°C° 0 mm 3 m/S 750 mmHg 52%
    11:00 +11°C° 0 mm 3 m/S 750 mmHg 48%
    12:00 +12°C° 0 mm 3 m/S 750 mmHg 47%
    13:00 +13°C° 0 mm 3 m/S 749 mmHg 46%
    14:00 +14°C° 0 mm 3 m/S 749 mmHg 45%
    15:00 +14°C° 0 mm 3 m/S 749 mmHg 50%
    16:00 +13°C° 0 mm 3 m/S 748 mmHg 54%
    17:00 +14°C° 0 mm 2 m/S 748 mmHg 59%
    18:00 +12°C° 0 mm 3 m/S 748 mmHg 61%
    19:00 +11°C° 0 mm 3 m/S 748 mmHg 63%
    20:00 +10°C° 0 mm 3 m/S 748 mmHg 65%
    21:00 +9°C° 0 mm 3 m/S 748 mmHg 66%
    22:00 +9°C° 0 mm 3 m/S 748 mmHg 66%
    23:00 +9°C° 0 mm 3 m/S 748 mmHg 67%

    übermorgen, 26 September, Donnerstag

    Zeit Temperatur Niederschläge Wind Luftdruck Luftfeuchtigkeit
    00:00 +9°C° 0 mm 3 m/S 747 mmHg 68%
    01:00 +8°C° 0 mm 3 m/S 747 mmHg 70%
    02:00 +8°C° 0 mm 3 m/S 747 mmHg 71%
    03:00 +8°C° 0 mm 3 m/S 747 mmHg 74%
    04:00 +7°C° 0 mm 3 m/S 747 mmHg 76%
    05:00 +7°C° 0 mm 3 m/S 747 mmHg 79%
    06:00 +8°C° 0.1 mm 3 m/S 747 mmHg 80%
    07:00 +8°C° 0.1 mm 3 m/S 747 mmHg 81%
    08:00 +9°C° 0.1 mm 3 m/S 747 mmHg 82%
    09:00 +11°C° 0.1 mm 3 m/S 748 mmHg 79%
    10:00 +12°C° 0.1 mm 3 m/S 748 mmHg 76%
    11:00 +15°C° 0.1 mm 2 m/S 748 mmHg 72%
    12:00 +16°C° 0.1 mm 2 m/S 748 mmHg 71%
    13:00 +17°C° 0.1 mm 3 m/S 748 mmHg 69%
    14:00 +18°C° 0.1 mm 3 m/S 748 mmHg 68%
    15:00 +17°C° 0.2 mm 3 m/S 748 mmHg 72%
    16:00 +16°C° 0.2 mm 3 m/S 748 mmHg 77%
    17:00 +14°C° 0.2 mm 3 m/S 748 mmHg 81%
    18:00 +14°C° 0 mm 2 m/S 748 mmHg 86%
    19:00 +12°C° 0 mm 2 m/S 748 mmHg 91%
    20:00 +10°C° 0 mm 2 m/S 749 mmHg 95%
    21:00 +9°C° 0 mm 2 m/S 749 mmHg 95%
    22:00 +9°C° 0 mm 2 m/S 749 mmHg 95%
    23:00 +9°C° 0 mm 2 m/S 750 mmHg 95%

    27 September, Freitag

    Zeit Temperatur Niederschläge Wind Luftdruck Luftfeuchtigkeit
    00:00 +9°C° 0 mm 2 m/S 750 mmHg 95%
    01:00 +8°C° 0 mm 2 m/S 750 mmHg 95%
    02:00 +8°C° 0 mm 2 m/S 750 mmHg 95%
    03:00 +8°C° 0 mm 2 m/S 750 mmHg 95%
    04:00 +8°C° 0 mm 2 m/S 751 mmHg 95%
    05:00 +8°C° 0 mm 2 m/S 751 mmHg 95%
    06:00 +8°C° 0 mm 2 m/S 751 mmHg 93%
    07:00 +9°C° 0 mm 2 m/S 751 mmHg 91%
    08:00 +11°C° 0 mm 1 m/S 751 mmHg 88%
    09:00 +12°C° 0 mm 1 m/S 751 mmHg 81%
    10:00 +13°C° 0 mm 2 m/S 752 mmHg 74%
    11:00 +15°C° 0 mm 2 m/S 752 mmHg 67%
    12:00 +15°C° 0 mm 1 m/S 752 mmHg 65%
    13:00 +16°C° 0 mm 1 m/S 752 mmHg 63%
    14:00 +16°C° 0 mm 1 m/S 751 mmHg 61%
    15:00 +15°C° 0 mm 1 m/S 751 mmHg 63%
    16:00 +15°C° 0 mm 1 m/S 751 mmHg 66%
    17:00 +14°C° 0 mm 1 m/S 751 mmHg 69%
    18:00 +13°C° 0 mm 1 m/S 751 mmHg 74%
    19:00 +12°C° 0 mm 1 m/S 752 mmHg 79%
    20:00 +10°C° 0 mm 1 m/S 752 mmHg 84%
    21:00 +10°C° 0 mm 1 m/S 752 mmHg 86%
    22:00 +9°C° 0 mm 1 m/S 752 mmHg 88%
    23:00 +9°C° 0 mm 1 m/S 752 mmHg 89%

    28 September, Samstag

    Zeit Temperatur Niederschläge Wind Luftdruck Luftfeuchtigkeit
    00:00 +9°C° 0 mm 1 m/S 752 mmHg 91%
    01:00 +8°C° 0 mm 1 m/S 752 mmHg 92%
    02:00 +8°C° 0 mm 1 m/S 752 mmHg 93%
    03:00 +7°C° 0 mm 2 m/S 752 mmHg 93%
    04:00 +7°C° 0 mm 2 m/S 751 mmHg 94%
    05:00 +7°C° 0 mm 2 m/S 751 mmHg 94%
    06:00 +8°C° 0 mm 2 m/S 751 mmHg 91%
    07:00 +9°C° 0 mm 3 m/S 750 mmHg 87%
    08:00 +10°C° 0 mm 3 m/S 750 mmHg 84%
    09:00 +10°C° 0.2 mm 3 m/S 750 mmHg 85%
    10:00 +11°C° 0.2 mm 4 m/S 750 mmHg 86%
    11:00 +11°C° 0.2 mm 4 m/S 750 mmHg 86%
    12:00 +12°C° 0.7 mm 4 m/S 749 mmHg 85%
    13:00 +13°C° 0.7 mm 4 m/S 749 mmHg 83%
    14:00 +15°C° 0.7 mm 4 m/S 748 mmHg 82%
    15:00 +16°C° 0.4 mm 3 m/S 748 mmHg 82%
    16:00 +16°C° 0.4 mm 3 m/S 748 mmHg 83%
    17:00 +17°C° 0.4 mm 3 m/S 747 mmHg 83%
    18:00 +15°C° 0.1 mm 2 m/S 747 mmHg 86%
    19:00 +14°C° 0.1 mm 2 m/S 747 mmHg 89%
    20:00 +13°C° 0.1 mm 2 m/S 747 mmHg 92%
    21:00 +13°C° 0 mm 2 m/S 747 mmHg 92%
    22:00 +12°C° 0 mm 2 m/S 747 mmHg 92%
    23:00 +12°C° 0 mm 2 m/S 747 mmHg 93%

    29 September, Sonntag

    Zeit Temperatur Niederschläge Wind Luftdruck Luftfeuchtigkeit
    00:00 +12°C° 0.1 mm 2 m/S 747 mmHg 93%
    01:00 +12°C° 0.1 mm 2 m/S 747 mmHg 94%
    02:00 +10°C° 0.1 mm 2 m/S 747 mmHg 94%
    03:00 +10°C° 0.2 mm 2 m/S 747 mmHg 95%
    04:00 +10°C° 0.2 mm 2 m/S 747 mmHg 96%
    05:00 +10°C° 0.2 mm 2 m/S 746 mmHg 96%
    06:00 +10°C° 0.1 mm 3 m/S 746 mmHg 94%
    07:00 +11°C° 0.1 mm 3 m/S 746 mmHg 92%
    08:00 +12°C° 0.1 mm 3 m/S 746 mmHg 89%
    09:00 +13°C° 0.1 mm 4 m/S 746 mmHg 83%
    10:00 +15°C° 0.1 mm 4 m/S 746 mmHg 76%
    11:00 +16°C° 0.1 mm 5 m/S 746 mmHg 70%
    12:00 +17°C° 0.3 mm 5 m/S 746 mmHg 67%
    13:00 +17°C° 0.3 mm 5 m/S 746 mmHg 63%
    14:00 +17°C° 0.3 mm 6 m/S 746 mmHg 60%
    15:00 +17°C° 0.1 mm 5 m/S 746 mmHg 64%
    16:00 +17°C° 0.1 mm 4 m/S 746 mmHg 68%
    17:00 +16°C° 0.1 mm 3 m/S 746 mmHg 72%
    18:00 +15°C° 0.1 mm 2 m/S 746 mmHg 77%
    19:00 +14°C° 0.1 mm 2 m/S 746 mmHg 82%
    20:00 +13°C° 0.1 mm 2 m/S 746 mmHg 86%
    21:00 +12°C° 0 mm 2 m/S 746 mmHg 86%
    22:00 +12°C° 0 mm 2 m/S 746 mmHg 86%
    23:00 +12°C° 0 mm 2 m/S 746 mmHg 85%
    Mehr zeigen